Time,TemperatureF,DewpointF,PressureIn,WindDirection,WindDirectionDegrees,WindSpeedMPH,WindSpeedGustMPH,Humidity,HourlyPrecipIn,Conditions,Clouds,dailyrainin,SoftwareType,DateUTC
2013-04-07 00:00:00,38.2,33.1,29.79,NNW,338,0.4,3.4,82,0.00,,,0.00,WUHU216HW,2013-04-07 05:00:00,
2013-04-07 00:05:00,38.2,33.5,29.79,WSW,248,1.1,3.4,83,0.00,,,0.00,WUHU216HW,2013-04-07 05:05:00,
2013-04-07 00:10:00,38.2,33.1,29.79,NNW,338,0.4,2.5,82,0.00,,,0.00,WUHU216HW,2013-04-07 05:10:00,
2013-04-07 00:15:00,38.0,33.3,29.79,West,270,3.1,3.1,83,0.00,,,0.00,WUHU216HW,2013-04-07 05:15:00,
2013-04-07 00:20:00,38.0,33.3,29.80,NNW,338,1.3,3.4,83,0.00,,,0.00,WUHU216HW,2013-04-07 05:20:00,
2013-04-07 00:25:00,38.0,33.6,29.80,West,270,3.8,3.8,84,0.00,,,0.00,WUHU216HW,2013-04-07 05:25:00,
2013-04-07 00:30:00,38.0,33.6,29.79,East,90,0.7,3.8,84,0.00,,,0.00,WUHU216HW,2013-04-07 05:30:00,
2013-04-07 00:35:00,38.0,33.3,29.80,NNW,338,2.0,3.8,83,0.00,,,0.00,WUHU216HW,2013-04-07 05:35:00,
2013-04-07 00:40:00,38.0,33.3,29.80,NW,315,3.1,4.0,83,0.00,,,0.00,WUHU216HW,2013-04-07 05:40:00,
2013-04-07 00:45:00,37.8,33.1,29.80,SW,225,2.5,4.0,83,0.00,,,0.00,WUHU216HW,2013-04-07 05:45:00,
2013-04-07 00:50:00,37.8,33.1,29.80,WSW,248,1.1,2.7,83,0.00,,,0.00,WUHU216HW,2013-04-07 05:50:00,
2013-04-07 00:55:00,37.8,33.1,29.80,WSW,248,0.9,2.7,83,0.00,,,0.00,WUHU216HW,2013-04-07 05:55:00,
2013-04-07 01:00:00,37.6,33.2,29.80,ENE,68,1.1,3.1,84,0.00,,,0.00,WUHU216HW,2013-04-07 06:00:00,
2013-04-07 01:05:00,37.4,32.8,29.80,West,270,1.3,3.1,83,0.00,,,0.00,WUHU216HW,2013-04-07 06:05:00,
2013-04-07 01:10:00,37.3,32.9,29.80,WNW,293,1.3,3.1,84,0.00,,,0.00,WUHU216HW,2013-04-07 06:10:00,
2013-04-07 01:15:00,37.1,32.7,29.81,SSW,203,2.0,2.5,84,0.00,,,0.00,WUHU216HW,2013-04-07 06:15:00,
2013-04-07 01:20:00,36.7,32.3,29.80,NNE,23,1.8,2.0,84,0.00,,,0.00,WUHU216HW,2013-04-07 06:20:00,
2013-04-07 01:25:00,36.5,32.1,29.81,WSW,248,0.7,2.0,84,0.00,,,0.00,WUHU216HW,2013-04-07 06:25:00,
2013-04-07 01:30:00,36.4,32.0,29.81,WSW,248,1.1,2.0,84,0.00,,,0.00,WUHU216HW,2013-04-07 06:30:00,
2013-04-07 01:35:00,36.2,31.8,29.81,West,270,0.9,2.0,84,0.00,,,0.00,WUHU216HW,2013-04-07 06:35:00,
2013-04-07 01:40:00,36.2,31.8,29.82,West,270,0.4,1.6,84,0.00,,,0.00,WUHU216HW,2013-04-07 06:40:00,
2013-04-07 01:45:00,35.8,31.7,29.82,WSW,248,0.9,1.8,85,0.00,,,0.00,WUHU216HW,2013-04-07 06:45:00,
2013-04-07 01:50:00,35.6,31.2,29.82,ESE,113,0.0,1.8,84,0.00,,,0.00,WUHU216HW,2013-04-07 06:50:00,
2013-04-07 01:55:00,35.5,31.1,29.82,West,270,1.3,1.8,84,0.00,,,0.00,WUHU216HW,2013-04-07 06:55:00,
2013-04-07 02:00:00,35.3,31.1,29.82,West,270,1.1,1.8,85,0.00,,,0.00,WUHU216HW,2013-04-07 07:00:00,
2013-04-07 02:05:00,35.1,31.0,29.82,NNE,23,0.4,1.8,85,0.00,,,0.00,WUHU216HW,2013-04-07 07:05:00,
2013-04-07 02:10:00,35.1,30.7,29.82,West,270,0.4,1.8,84,0.00,,,0.00,WUHU216HW,2013-04-07 07:10:00,
2013-04-07 02:15:00,34.9,30.5,29.82,West,270,1.1,1.3,84,0.00,,,0.00,WUHU216HW,2013-04-07 07:15:00,
2013-04-07 02:20:00,34.9,30.5,29.82,West,270,0.4,1.6,84,0.00,,,0.00,WUHU216HW,2013-04-07 07:20:00,
2013-04-07 02:25:00,34.7,30.6,29.82,NNW,338,0.0,2.0,85,0.00,,,0.00,WUHU216HW,2013-04-07 07:25:00,
2013-04-07 02:30:00,34.6,30.4,29.82,West,270,0.4,2.0,85,0.00,,,0.00,WUHU216HW,2013-04-07 07:30:00,
2013-04-07 02:35:00,34.4,30.0,29.82,WNW,293,0.0,0.9,84,0.00,,,0.00,WUHU216HW,2013-04-07 07:35:00,
2013-04-07 02:40:00,34.2,29.8,29.82,SSW,203,0.2,0.9,84,0.00,,,0.00,WUHU216HW,2013-04-07 07:40:00,
2013-04-07 02:45:00,34.0,30.2,29.82,NW,315,0.2,1.6,86,0.00,,,0.00,WUHU216HW,2013-04-07 07:45:00,
2013-04-07 02:50:00,34.2,30.3,29.82,NW,315,0.2,1.6,86,0.00,,,0.00,WUHU216HW,2013-04-07 07:50:00,
2013-04-07 02:55:00,34.2,30.3,29.82,North,0,1.6,1.6,86,0.00,,,0.00,WUHU216HW,2013-04-07 07:55:00,
2013-04-07 03:00:00,34.6,31.3,29.82,WSW,248,2.0,2.2,88,0.00,,,0.00,WUHU216HW,2013-04-07 08:00:00,
2013-04-07 03:06:00,34.7,31.5,29.82,West,270,1.1,2.9,88,0.00,,,0.00,WUHU216HW,2013-04-07 08:06:00,
2013-04-07 03:11:00,34.7,31.1,29.82,West,270,0.4,2.9,87,0.00,,,0.00,WUHU216HW,2013-04-07 08:11:00,
2013-04-07 03:16:00,34.7,31.1,29.82,West,270,1.8,2.5,87,0.00,,,0.00,WUHU216HW,2013-04-07 08:16:00,
2013-04-07 03:22:00,34.6,31.0,29.82,West,270,1.8,2.7,87,0.00,,,0.00,WUHU216HW,2013-04-07 08:22:00,
2013-04-07 03:27:00,34.6,31.0,29.82,West,270,1.1,2.7,87,0.00,,,0.00,WUHU216HW,2013-04-07 08:27:00,
2013-04-07 03:32:00,34.4,30.8,29.82,West,270,0.7,2.5,87,0.00,,,0.00,WUHU216HW,2013-04-07 08:32:00,
2013-04-07 03:37:00,34.2,30.6,29.82,West,270,0.9,1.3,87,0.00,,,0.00,WUHU216HW,2013-04-07 08:37:00,
2013-04-07 03:42:00,34.2,30.3,29.82,West,270,0.4,1.1,86,0.00,,,0.00,WUHU216HW,2013-04-07 08:42:00,
2013-04-07 03:47:00,34.2,31.0,29.83,West,270,1.1,1.8,88,0.00,,,0.00,WUHU216HW,2013-04-07 08:47:00,
2013-04-07 03:52:00,34.2,31.0,29.84,West,270,1.3,2.2,88,0.00,,,0.00,WUHU216HW,2013-04-07 08:52:00,
2013-04-07 03:57:00,34.4,30.8,29.84,WSW,248,1.1,2.5,87,0.00,,,0.00,WUHU216HW,2013-04-07 08:57:00,
2013-04-07 04:02:00,34.6,31.0,29.84,West,270,1.1,2.5,87,0.00,,,0.00,WUHU216HW,2013-04-07 09:02:00,
2013-04-07 04:07:00,34.6,31.0,29.85,WSW,248,1.8,3.1,87,0.00,,,0.00,WUHU216HW,2013-04-07 09:07:00,
2013-04-07 04:12:00,34.7,30.9,29.85,West,270,1.6,3.1,86,0.00,,,0.00,WUHU216HW,2013-04-07 09:12:00,
2013-04-07 04:17:00,34.9,31.1,29.85,WNW,293,0.4,2.7,86,0.00,,,0.00,WUHU216HW,2013-04-07 09:17:00,
2013-04-07 04:22:00,34.9,31.1,29.85,WNW,293,1.1,2.9,86,0.00,,,0.00,WUHU216HW,2013-04-07 09:22:00,
2013-04-07 04:27:00,34.9,31.1,29.85,West,270,2.7,3.4,86,0.00,,,0.00,WUHU216HW,2013-04-07 09:27:00,
2013-04-07 04:32:00,34.9,31.1,29.85,NW,315,1.3,3.4,86,0.00,,,0.00,WUHU216HW,2013-04-07 09:32:00,
2013-04-07 04:37:00,35.1,31.2,29.86,West,270,0.7,2.5,86,0.00,,,0.00,WUHU216HW,2013-04-07 09:37:00,
2013-04-07 04:42:00,35.3,31.4,29.85,West,270,1.8,3.4,86,0.00,,,0.00,WUHU216HW,2013-04-07 09:42:00,
2013-04-07 04:47:00,35.3,31.4,29.86,WSW,248,1.3,3.4,86,0.00,,,0.00,WUHU216HW,2013-04-07 09:47:00,
2013-04-07 04:52:00,35.3,31.4,29.86,WSW,248,1.3,2.5,86,0.00,,,0.00,WUHU216HW,2013-04-07 09:52:00,
2013-04-07 04:57:00,35.3,31.1,29.86,WSW,248,1.8,2.5,85,0.00,,,0.00,WUHU216HW,2013-04-07 09:57:00,
2013-04-07 05:02:00,35.5,31.3,29.86,WNW,293,1.8,2.5,85,0.00,,,0.00,WUHU216HW,2013-04-07 10:02:00,
2013-04-07 05:07:00,35.5,31.3,29.86,WNW,293,0.4,2.5,85,0.00,,,0.00,WUHU216HW,2013-04-07 10:07:00,
2013-04-07 05:12:00,35.5,31.3,29.86,WSW,248,1.3,1.8,85,0.00,,,0.00,WUHU216HW,2013-04-07 10:12:00,
2013-04-07 05:17:00,35.5,31.3,29.86,WSW,248,1.1,1.8,85,0.00,,,0.00,WUHU216HW,2013-04-07 10:17:00,
2013-04-07 05:22:00,35.5,31.3,29.87,WSW,248,1.1,3.4,85,0.00,,,0.00,WUHU216HW,2013-04-07 10:22:00,
2013-04-07 05:27:00,35.5,31.3,29.87,West,270,1.3,3.4,85,0.00,,,0.00,WUHU216HW,2013-04-07 10:27:00,
2013-04-07 05:32:00,35.6,31.5,29.87,West,270,1.3,2.0,85,0.00,,,0.00,WUHU216HW,2013-04-07 10:32:00,
2013-04-07 05:37:00,35.5,31.1,29.87,West,270,0.0,2.0,84,0.00,,,0.00,WUHU216HW,2013-04-07 10:37:00,
2013-04-07 05:42:00,35.5,31.1,29.87,West,270,0.7,1.3,84,0.00,,,0.00,WUHU216HW,2013-04-07 10:42:00,
2013-04-07 05:47:00,35.5,31.1,29.87,West,270,1.8,1.8,84,0.00,,,0.00,WUHU216HW,2013-04-07 10:47:00,
2013-04-07 05:52:00,35.5,31.3,29.88,WSW,248,1.1,2.2,85,0.00,,,0.00,WUHU216HW,2013-04-07 10:52:00,
2013-04-07 05:57:00,35.5,31.3,29.88,NW,315,0.7,2.2,85,0.00,,,0.00,WUHU216HW,2013-04-07 10:57:00,
2013-04-07 06:02:00,35.6,31.5,29.89,WNW,293,0.4,2.0,85,0.00,,,0.00,WUHU216HW,2013-04-07 11:02:00,
2013-04-07 06:08:00,35.5,31.1,29.89,West,270,1.6,2.0,84,0.00,,,0.00,WUHU216HW,2013-04-07 11:08:00,
2013-04-07 06:13:00,35.6,31.2,29.89,West,270,0.9,1.8,84,0.00,,,0.00,WUHU216HW,2013-04-07 11:13:00,
2013-04-07 06:18:00,35.6,31.2,29.89,West,270,1.1,1.8,84,0.00,,,0.00,WUHU216HW,2013-04-07 11:18:00,
2013-04-07 06:23:00,35.6,31.2,29.90,WSW,248,2.0,2.0,84,0.00,,,0.00,WUHU216HW,2013-04-07 11:23:00,
2013-04-07 06:28:00,35.6,31.2,29.89,WNW,293,1.8,2.7,84,0.00,,,0.00,WUHU216HW,2013-04-07 11:28:00,
2013-04-07 06:33:00,35.6,31.2,29.90,West,270,0.7,2.7,84,0.00,,,0.00,WUHU216HW,2013-04-07 11:33:00,
2013-04-07 06:38:00,35.6,31.2,29.90,NNE,23,1.8,1.8,84,0.00,,,0.00,WUHU216HW,2013-04-07 11:38:00,
2013-04-07 06:43:00,35.6,31.2,29.89,West,270,1.1,1.8,84,0.00,,,0.00,WUHU216HW,2013-04-07 11:43:00,
2013-04-07 06:48:00,35.6,31.2,29.90,WNW,293,1.1,2.2,84,0.00,,,0.00,WUHU216HW,2013-04-07 11:48:00,
2013-04-07 06:53:00,35.6,31.2,29.90,West,270,1.8,2.2,84,0.00,,,0.00,WUHU216HW,2013-04-07 11:53:00,
2013-04-07 06:58:00,35.6,31.2,29.90,WNW,293,0.0,1.8,84,0.00,,,0.00,WUHU216HW,2013-04-07 11:58:00,
2013-04-07 07:03:00,35.5,31.1,29.90,West,270,0.7,1.8,84,0.00,,,0.00,WUHU216HW,2013-04-07 12:03:00,
2013-04-07 07:08:00,35.5,31.1,29.90,WSW,248,1.1,1.8,84,0.00,,,0.00,WUHU216HW,2013-04-07 12:08:00,
2013-04-07 07:13:00,35.6,31.2,29.90,WSW,248,0.4,1.8,84,0.00,,,0.00,WUHU216HW,2013-04-07 12:13:00,
2013-04-07 07:18:00,35.6,31.0,29.90,WSW,248,1.1,2.5,83,0.00,,,0.00,WUHU216HW,2013-04-07 12:18:00,
2013-04-07 07:23:00,35.6,31.0,29.90,WSW,248,0.4,2.5,83,0.00,,,0.00,WUHU216HW,2013-04-07 12:23:00,
2013-04-07 07:28:00,35.6,31.0,29.91,West,270,1.6,1.8,83,0.00,,,0.00,WUHU216HW,2013-04-07 12:28:00,
2013-04-07 07:33:00,35.6,31.0,29.91,West,270,1.3,2.0,83,0.00,,,0.00,WUHU216HW,2013-04-07 12:33:00,
2013-04-07 07:38:00,35.6,31.0,29.91,West,270,0.9,2.0,83,0.00,,,0.00,WUHU216HW,2013-04-07 12:38:00,
2013-04-07 07:43:00,35.6,31.0,29.91,West,270,0.9,1.8,83,0.00,,,0.00,WUHU216HW,2013-04-07 12:43:00,
2013-04-07 07:48:00,35.8,31.2,29.92,WNW,293,0.4,1.8,83,0.00,,,0.00,WUHU216HW,2013-04-07 12:48:00,
2013-04-07 07:53:00,35.8,31.2,29.92,West,270,0.4,1.8,83,0.00,,,0.00,WUHU216HW,2013-04-07 12:53:00,
2013-04-07 07:58:00,35.8,31.2,29.92,West,270,1.6,1.6,83,0.00,,,0.00,WUHU216HW,2013-04-07 12:58:00,
2013-04-07 08:03:00,35.8,31.2,29.92,WSW,248,0.4,2.0,83,0.00,,,0.00,WUHU216HW,2013-04-07 13:03:00,
2013-04-07 08:08:00,36.0,31.3,29.92,West,270,0.7,2.0,83,0.00,,,0.00,WUHU216HW,2013-04-07 13:08:00,
2013-04-07 08:13:00,36.0,31.3,29.92,West,270,0.7,2.0,83,0.00,,,0.00,WUHU216HW,2013-04-07 13:13:00,
2013-04-07 08:18:00,36.0,31.3,29.93,NW,315,1.8,2.0,83,0.00,,,0.00,WUHU216HW,2013-04-07 13:18:00,
2013-04-07 08:23:00,36.2,31.1,29.93,West,270,1.8,2.0,82,0.00,,,0.00,WUHU216HW,2013-04-07 13:23:00,
2013-04-07 08:28:00,36.2,31.5,29.93,West,270,0.7,2.2,83,0.00,,,0.00,WUHU216HW,2013-04-07 13:28:00,
2013-04-07 08:33:00,36.2,31.1,29.93,WNW,293,1.8,2.5,82,0.00,,,0.00,WUHU216HW,2013-04-07 13:33:00,
2013-04-07 08:38:00,36.2,31.1,29.93,WSW,248,1.8,4.0,82,0.00,,,0.00,WUHU216HW,2013-04-07 13:38:00,
2013-04-07 08:43:00,36.4,31.3,29.93,WSW,248,0.9,4.0,82,0.00,,,0.00,WUHU216HW,2013-04-07 13:43:00,
2013-04-07 08:48:00,36.5,31.5,29.93,WNW,293,1.6,2.7,82,0.00,,,0.00,WUHU216HW,2013-04-07 13:48:00,
2013-04-07 08:53:00,36.5,31.5,29.93,West,270,1.1,2.7,82,0.00,,,0.00,WUHU216HW,2013-04-07 13:53:00,
2013-04-07 08:58:00,36.7,31.4,29.94,WSW,248,1.3,2.7,81,0.00,,,0.00,WUHU216HW,2013-04-07 13:58:00,
2013-04-07 09:03:00,36.9,31.6,29.94,West,270,1.8,2.7,81,0.00,,,0.00,WUHU216HW,2013-04-07 14:03:00,
2013-04-07 09:08:00,37.1,31.8,29.94,West,270,2.7,2.7,81,0.00,,,0.00,WUHU216HW,2013-04-07 14:08:00,
2013-04-07 09:13:00,37.1,31.5,29.94,SW,225,0.7,2.7,80,0.00,,,0.00,WUHU216HW,2013-04-07 14:13:00,
2013-04-07 09:18:00,37.4,32.1,29.93,WSW,248,1.6,2.7,81,0.00,,,0.00,WUHU216HW,2013-04-07 14:18:00,
2013-04-07 09:23:00,37.6,32.0,29.93,WSW,248,1.1,2.7,80,0.00,,,0.00,WUHU216HW,2013-04-07 14:23:00,
2013-04-07 09:28:00,37.8,32.2,29.93,WSW,248,1.3,2.2,80,0.00,,,0.00,WUHU216HW,2013-04-07 14:28:00,
2013-04-07 09:33:00,38.2,32.6,29.93,WSW,248,0.4,2.2,80,0.00,,,0.00,WUHU216HW,2013-04-07 14:33:00,
2013-04-07 09:38:00,38.2,32.2,29.93,NNE,23,0.4,4.0,79,0.00,,,0.00,WUHU216HW,2013-04-07 14:38:00,
2013-04-07 09:43:00,38.7,33.1,29.93,WSW,248,1.6,4.0,80,0.00,,,0.00,WUHU216HW,2013-04-07 14:43:00,
2013-04-07 09:48:00,38.7,32.5,29.94,WSW,248,2.2,3.6,78,0.00,,,0.00,WUHU216HW,2013-04-07 14:48:00,
2013-04-07 09:53:00,38.5,32.3,29.94,WSW,248,2.0,3.6,78,0.00,,,0.00,WUHU216HW,2013-04-07 14:53:00,
2013-04-07 09:58:00,38.5,32.3,29.95,West,270,1.8,3.4,78,0.00,,,0.00,WUHU216HW,2013-04-07 14:58:00,
2013-04-07 10:03:00,38.9,32.6,29.95,WSW,248,2.5,3.4,78,0.00,,,0.00,WUHU216HW,2013-04-07 15:03:00,
2013-04-07 10:08:00,38.9,32.3,29.95,SW,225,2.5,4.0,77,0.00,,,0.00,WUHU216HW,2013-04-07 15:08:00,
2013-04-07 10:13:00,38.9,32.3,29.95,West,270,1.1,4.0,77,0.00,,,0.00,WUHU216HW,2013-04-07 15:13:00,
2013-04-07 10:18:00,39.1,32.5,29.95,WSW,248,2.5,3.1,77,0.00,,,0.00,WUHU216HW,2013-04-07 15:18:00,
2013-04-07 10:23:00,39.2,32.0,29.95,WSW,248,2.2,3.4,75,0.00,,,0.00,WUHU216HW,2013-04-07 15:23:00,
2013-04-07 10:28:00,39.2,32.0,29.95,NW,315,2.0,3.4,75,0.00,,,0.00,WUHU216HW,2013-04-07 15:28:00,
2013-04-07 10:33:00,39.6,32.0,29.95,SW,225,1.8,3.1,74,0.00,,,0.00,WUHU216HW,2013-04-07 15:33:00,
2013-04-07 10:38:00,39.6,32.0,29.95,WSW,248,3.6,3.6,74,0.00,,,0.00,WUHU216HW,2013-04-07 15:38:00,
2013-04-07 10:43:00,40.0,32.3,29.95,WSW,248,2.5,3.6,74,0.00,,,0.00,WUHU216HW,2013-04-07 15:43:00,
2013-04-07 10:49:00,40.1,32.1,29.95,NNW,338,1.1,3.6,73,0.00,,,0.00,WUHU216HW,2013-04-07 15:49:00,
2013-04-07 10:54:00,40.1,31.8,29.96,SW,225,1.1,3.4,72,0.00,,,0.00,WUHU216HW,2013-04-07 15:54:00,
2013-04-07 10:59:00,40.1,32.1,29.96,SW,225,0.4,3.4,73,0.00,,,0.00,WUHU216HW,2013-04-07 15:59:00,
2013-04-07 11:04:00,40.3,32.0,29.96,NW,315,1.1,2.2,72,0.00,,,0.00,WUHU216HW,2013-04-07 16:04:00,
2013-04-07 11:09:00,40.7,32.7,29.96,WSW,248,1.1,1.8,73,0.00,,,0.00,WUHU216HW,2013-04-07 16:09:00,
2013-04-07 11:14:00,41.2,32.6,29.96,WSW,248,1.1,2.5,71,0.00,,,0.00,WUHU216HW,2013-04-07 16:14:00,
2013-04-07 11:19:00,41.4,32.8,29.96,South,180,0.0,2.5,71,0.00,,,0.00,WUHU216HW,2013-04-07 16:19:00,
2013-04-07 11:24:00,41.8,32.8,29.96,NNW,338,1.6,2.5,70,0.00,,,0.00,WUHU216HW,2013-04-07 16:24:00,
2013-04-07 11:29:00,42.1,33.5,29.96,ESE,113,0.4,2.5,71,0.00,,,0.00,WUHU216HW,2013-04-07 16:29:00,
2013-04-07 11:34:00,41.8,32.4,29.96,WSW,248,2.2,4.0,69,0.00,,,0.00,WUHU216HW,2013-04-07 16:34:00,
2013-04-07 11:39:00,41.4,32.1,29.96,WSW,248,1.1,4.0,69,0.00,,,0.00,WUHU216HW,2013-04-07 16:39:00,
2013-04-07 11:44:00,41.6,32.2,29.96,WSW,248,1.8,3.4,69,0.00,,,0.00,WUHU216HW,2013-04-07 16:44:00,
2013-04-07 11:49:00,41.8,32.8,29.96,SE,135,0.4,3.4,70,0.00,,,0.00,WUHU216HW,2013-04-07 16:49:00,
2013-04-07 11:55:00,42.8,33.8,29.96,WSW,248,1.8,2.5,70,0.00,,,0.00,WUHU216HW,2013-04-07 16:55:00,
2013-04-07 12:00:00,42.8,32.7,29.96,West,270,4.0,4.0,67,0.00,,,0.00,WUHU216HW,2013-04-07 17:00:00,
2013-04-07 12:05:00,42.7,33.3,29.95,SSE,158,1.1,4.0,69,0.00,,,0.00,WUHU216HW,2013-04-07 17:05:00,
2013-04-07 12:10:00,43.6,33.8,29.95,NW,315,0.4,4.0,68,0.00,,,0.00,WUHU216HW,2013-04-07 17:10:00,
2013-04-07 12:15:00,43.7,33.8,29.95,SW,225,0.0,1.8,68,0.00,,,0.00,WUHU216HW,2013-04-07 17:15:00,
2013-04-07 12:20:00,44.3,33.6,29.95,West,270,0.4,1.8,66,0.00,,,0.00,WUHU216HW,2013-04-07 17:20:00,
2013-04-07 12:25:00,45.0,35.1,29.95,ESE,113,0.7,1.8,68,0.00,,,0.00,WUHU216HW,2013-04-07 17:25:00,
2013-04-07 12:30:00,46.8,34.8,29.95,ESE,113,1.1,3.1,63,0.00,,,0.00,WUHU216HW,2013-04-07 17:30:00,
2013-04-07 12:35:00,47.3,35.4,29.95,ESE,113,3.4,3.6,63,0.00,,,0.00,WUHU216HW,2013-04-07 17:35:00,
2013-04-07 12:40:00,46.6,34.3,29.95,ENE,68,0.4,3.6,62,0.00,,,0.00,WUHU216HW,2013-04-07 17:40:00,
2013-04-07 12:45:00,45.2,33.0,29.95,East,90,1.6,4.0,62,0.00,,,0.00,WUHU216HW,2013-04-07 17:45:00,
2013-04-07 12:50:00,44.1,33.0,29.94,NW,315,0.4,4.7,65,0.00,,,0.00,WUHU216HW,2013-04-07 17:50:00,
2013-04-07 12:55:00,44.5,33.4,29.94,South,180,1.3,4.7,65,0.00,,,0.00,WUHU216HW,2013-04-07 17:55:00,
2013-04-07 13:00:00,45.9,34.7,29.94,South,180,0.4,3.8,65,0.00,,,0.00,WUHU216HW,2013-04-07 18:00:00,
2013-04-07 13:05:00,47.5,35.6,29.94,SE,135,0.4,3.8,63,0.00,,,0.00,WUHU216HW,2013-04-07 18:05:00,
2013-04-07 13:10:00,46.8,34.5,29.94,SSE,158,1.1,2.9,62,0.00,,,0.00,WUHU216HW,2013-04-07 18:10:00,
2013-04-07 13:15:00,46.3,33.9,29.93,ESE,113,3.8,4.3,62,0.00,,,0.00,WUHU216HW,2013-04-07 18:15:00,
2013-04-07 13:20:00,46.1,34.1,29.94,SSE,158,1.1,4.3,63,0.00,,,0.00,WUHU216HW,2013-04-07 18:20:00,
2013-04-07 13:25:00,45.9,34.0,29.93,ESE,113,2.5,5.1,63,0.00,,,0.00,WUHU216HW,2013-04-07 18:25:00,
2013-04-07 13:30:00,45.9,34.4,29.93,SSE,158,2.0,5.1,64,0.00,,,0.00,WUHU216HW,2013-04-07 18:30:00,
2013-04-07 13:35:00,46.1,34.1,29.93,SSE,158,0.4,4.5,63,0.00,,,0.00,WUHU216HW,2013-04-07 18:35:00,
2013-04-07 13:40:00,46.1,34.1,29.93,SSE,158,1.1,3.8,63,0.00,,,0.00,WUHU216HW,2013-04-07 18:40:00,
2013-04-07 13:45:00,46.1,34.1,29.93,SSW,203,4.0,4.0,63,0.00,,,0.00,WUHU216HW,2013-04-07 18:45:00,
2013-04-07 13:50:00,45.7,34.2,29.93,WSW,248,1.8,4.0,64,0.00,,,0.00,WUHU216HW,2013-04-07 18:50:00,
2013-04-07 13:55:00,46.6,34.7,29.93,SE,135,2.9,4.0,63,0.00,,,0.00,WUHU216HW,2013-04-07 18:55:00,
2013-04-07 14:00:00,47.0,34.7,29.93,WSW,248,0.9,2.9,62,0.00,,,0.00,WUHU216HW,2013-04-07 19:00:00,
2013-04-07 14:05:00,47.9,35.1,29.93,WSW,248,2.5,3.4,61,0.00,,,0.00,WUHU216HW,2013-04-07 19:05:00,
2013-04-07 14:10:00,46.6,33.8,29.92,SE,135,1.1,3.8,61,0.00,,,0.00,WUHU216HW,2013-04-07 19:10:00,
2013-04-07 14:16:00,47.0,34.2,29.92,ESE,113,4.3,4.3,61,0.00,,,0.00,WUHU216HW,2013-04-07 19:16:00,
2013-04-07 14:21:00,46.8,34.5,29.91,East,90,3.8,4.3,62,0.00,,,0.00,WUHU216HW,2013-04-07 19:21:00,
2013-04-07 14:26:00,47.5,34.7,29.91,ENE,68,3.6,5.4,61,0.00,,,0.00,WUHU216HW,2013-04-07 19:26:00,
2013-04-07 14:31:00,47.3,35.4,29.91,NNW,338,0.4,5.4,63,0.00,,,0.00,WUHU216HW,2013-04-07 19:31:00,
2013-04-07 14:36:00,48.2,35.5,29.90,WSW,248,3.1,5.4,61,0.00,,,0.00,WUHU216HW,2013-04-07 19:36:00,
2013-04-07 14:41:00,48.4,35.6,29.90,South,180,1.6,4.9,61,0.00,,,0.00,WUHU216HW,2013-04-07 19:41:00,
2013-04-07 14:46:00,48.6,35.5,29.90,ENE,68,0.4,4.0,60,0.00,,,0.00,WUHU216HW,2013-04-07 19:46:00,
2013-04-07 14:51:00,49.0,35.7,29.90,East,90,3.4,6.5,60,0.00,,,0.00,WUHU216HW,2013-04-07 19:51:00,
2013-04-07 14:56:00,49.0,36.1,29.90,East,90,2.2,6.5,61,0.00,,,0.00,WUHU216HW,2013-04-07 19:56:00,
2013-04-07 15:01:00,48.6,35.5,29.89,NE,45,1.8,5.6,60,0.00,,,0.00,WUHU216HW,2013-04-07 20:01:00,
2013-04-07 15:06:00,49.3,36.5,29.89,ENE,68,4.5,5.6,61,0.00,,,0.00,WUHU216HW,2013-04-07 20:06:00,
2013-04-07 15:11:00,50.0,36.7,29.89,East,90,1.8,5.8,60,0.00,,,0.00,WUHU216HW,2013-04-07 20:11:00,
2013-04-07 15:16:00,50.8,36.9,29.89,SE,135,3.4,5.8,59,0.00,,,0.00,WUHU216HW,2013-04-07 20:16:00,
2013-04-07 15:21:00,51.1,36.8,29.89,SSW,203,1.1,4.7,58,0.00,,,0.00,WUHU216HW,2013-04-07 20:21:00,
2013-04-07 15:26:00,51.7,35.9,29.88,ESE,113,6.5,6.5,55,0.00,,,0.00,WUHU216HW,2013-04-07 20:26:00,
2013-04-07 15:32:00,52.2,36.9,29.88,ESE,113,3.6,6.5,56,0.00,,,0.00,WUHU216HW,2013-04-07 20:32:00,
2013-04-07 15:37:00,51.3,36.1,29.88,SW,225,3.6,6.5,56,0.00,,,0.00,WUHU216HW,2013-04-07 20:37:00,
2013-04-07 15:42:00,50.8,36.5,29.88,West,270,1.1,6.5,58,0.00,,,0.00,WUHU216HW,2013-04-07 20:42:00,
2013-04-07 15:47:00,51.5,37.1,29.87,SSW,203,1.8,5.4,58,0.00,,,0.00,WUHU216HW,2013-04-07 20:47:00,
2013-04-07 15:52:00,51.7,36.8,29.87,ESE,113,4.0,7.4,57,0.00,,,0.00,WUHU216HW,2013-04-07 20:52:00,
2013-04-07 15:57:00,50.8,36.5,29.86,ENE,68,3.4,7.4,58,0.00,,,0.00,WUHU216HW,2013-04-07 20:57:00,
2013-04-07 16:02:00,51.3,37.0,29.86,ESE,113,0.7,6.3,58,0.00,,,0.00,WUHU216HW,2013-04-07 21:02:00,
2013-04-07 16:07:00,51.7,36.8,29.86,ESE,113,4.0,5.4,57,0.00,,,0.00,WUHU216HW,2013-04-07 21:07:00,
2013-04-07 16:12:00,51.5,36.6,29.86,WNW,293,3.8,6.0,57,0.00,,,0.00,WUHU216HW,2013-04-07 21:12:00,
2013-04-07 16:17:00,51.1,36.8,29.86,SE,135,4.5,6.0,58,0.00,,,0.00,WUHU216HW,2013-04-07 21:17:00,
2013-04-07 16:22:00,50.9,36.6,29.86,ESE,113,4.3,6.0,58,0.00,,,0.00,WUHU216HW,2013-04-07 21:22:00,
2013-04-07 16:27:00,50.8,36.9,29.85,SE,135,1.6,6.0,59,0.00,,,0.00,WUHU216HW,2013-04-07 21:27:00,
2013-04-07 16:32:00,51.5,37.1,29.86,South,180,2.9,5.8,58,0.00,,,0.00,WUHU216HW,2013-04-07 21:32:00,
2013-04-07 16:38:00,51.5,37.1,29.86,SW,225,3.4,6.9,58,0.00,,,0.00,WUHU216HW,2013-04-07 21:38:00,
2013-04-07 16:43:00,51.8,37.4,29.86,ENE,68,3.4,6.9,58,0.00,,,0.00,WUHU216HW,2013-04-07 21:43:00,
2013-04-07 16:48:00,52.2,38.3,29.86,East,90,1.3,6.5,59,0.00,,,0.00,WUHU216HW,2013-04-07 21:48:00,
2013-04-07 16:53:00,52.9,38.5,29.86,East,90,2.2,6.3,58,0.00,,,0.00,WUHU216HW,2013-04-07 21:53:00,
2013-04-07 16:58:00,52.2,37.8,29.86,SSW,203,3.4,4.0,58,0.00,,,0.00,WUHU216HW,2013-04-07 21:58:00,
2013-04-07 17:03:00,52.6,38.2,29.85,SE,135,4.3,4.3,58,0.00,,,0.00,WUHU216HW,2013-04-07 22:03:00,
2013-04-07 17:08:00,52.0,37.6,29.85,East,90,2.0,7.4,58,0.00,,,0.00,WUHU216HW,2013-04-07 22:08:00,
2013-04-07 17:13:00,52.6,38.6,29.85,ESE,113,3.4,7.4,59,0.00,,,0.00,WUHU216HW,2013-04-07 22:13:00,
2013-04-07 17:18:00,52.2,37.8,29.85,ENE,68,1.8,5.1,58,0.00,,,0.00,WUHU216HW,2013-04-07 22:18:00,
2013-04-07 17:23:00,51.8,37.9,29.85,East,90,4.3,5.1,59,0.00,,,0.00,WUHU216HW,2013-04-07 22:23:00,
2013-04-07 17:28:00,51.3,37.9,29.85,SE,135,3.6,4.9,60,0.00,,,0.00,WUHU216HW,2013-04-07 22:28:00,
2013-04-07 17:33:00,51.5,38.0,29.85,South,180,5.1,5.4,60,0.00,,,0.00,WUHU216HW,2013-04-07 22:33:00,
2013-04-07 17:38:00,51.1,38.1,29.85,East,90,4.5,5.4,61,0.00,,,0.00,WUHU216HW,2013-04-07 22:38:00,
2013-04-07 17:43:00,50.8,37.8,29.85,WSW,248,2.5,5.4,61,0.00,,,0.00,WUHU216HW,2013-04-07 22:43:00,
2013-04-07 17:48:00,50.4,37.8,29.85,SSE,158,2.9,4.5,62,0.00,,,0.00,WUHU216HW,2013-04-07 22:48:00,
2013-04-07 17:53:00,50.2,38.1,29.85,SSE,158,1.8,4.5,63,0.00,,,0.00,WUHU216HW,2013-04-07 22:53:00,
2013-04-07 17:58:00,50.0,38.4,29.85,SSW,203,2.5,3.8,64,0.00,,,0.00,WUHU216HW,2013-04-07 22:58:00,
2013-04-07 18:03:00,49.7,38.0,29.85,South,180,3.1,3.8,64,0.00,,,0.00,WUHU216HW,2013-04-07 23:03:00,
2013-04-07 18:08:00,49.5,37.8,29.85,SSE,158,0.9,4.5,64,0.00,,,0.00,WUHU216HW,2013-04-07 23:08:00,
2013-04-07 18:13:00,49.3,38.0,29.85,ESE,113,3.8,4.5,65,0.00,,,0.00,WUHU216HW,2013-04-07 23:13:00,
2013-04-07 18:18:00,49.3,38.0,29.85,SE,135,1.1,4.0,65,0.00,,,0.00,WUHU216HW,2013-04-07 23:18:00,
2013-04-07 18:23:00,49.3,38.4,29.84,SSE,158,1.3,3.6,66,0.00,,,0.00,WUHU216HW,2013-04-07 23:23:00,
2013-04-07 18:28:00,49.1,38.3,29.84,ESE,113,2.0,3.6,66,0.00,,,0.00,WUHU216HW,2013-04-07 23:28:00,
2013-04-07 18:33:00,49.0,38.1,29.84,ESE,113,1.3,2.7,66,0.00,,,0.00,WUHU216HW,2013-04-07 23:33:00,
2013-04-07 18:38:00,49.0,38.4,29.84,SE,135,2.9,4.0,67,0.00,,,0.00,WUHU216HW,2013-04-07 23:38:00,
2013-04-07 18:43:00,48.6,38.5,29.84,ESE,113,2.5,4.0,68,0.00,,,0.00,WUHU216HW,2013-04-07 23:43:00,
2013-04-07 18:48:00,48.6,38.1,29.84,ESE,113,0.4,4.0,67,0.00,,,0.00,WUHU216HW,2013-04-07 23:48:00,
2013-04-07 18:53:00,48.6,38.5,29.84,ESE,113,0.9,2.5,68,0.00,,,0.00,WUHU216HW,2013-04-07 23:53:00,
2013-04-07 18:58:00,48.4,38.4,29.84,East,90,1.1,2.5,68,0.00,,,0.00,WUHU216HW,2013-04-07 23:58:00,
2013-04-07 19:03:00,48.2,38.5,29.84,East,90,1.3,3.4,69,0.00,,,0.00,WUHU216HW,2013-04-08 00:03:00,
2013-04-07 19:08:00,48.2,38.2,29.84,ESE,113,0.7,3.4,68,0.00,,,0.00,WUHU216HW,2013-04-08 00:08:00,
2013-04-07 19:13:00,48.2,38.5,29.84,ESE,113,0.7,3.4,69,0.00,,,0.00,WUHU216HW,2013-04-08 00:13:00,
2013-04-07 19:18:00,48.2,38.5,29.84,ENE,68,1.3,3.4,69,0.00,,,0.00,WUHU216HW,2013-04-08 00:18:00,
2013-04-07 19:23:00,48.2,38.5,29.84,ENE,68,0.0,2.5,69,0.00,,,0.00,WUHU216HW,2013-04-08 00:23:00,
2013-04-07 19:29:00,48.1,38.4,29.84,SE,135,0.0,1.3,69,0.00,,,0.00,WUHU216HW,2013-04-08 00:29:00,
2013-04-07 19:34:00,47.9,38.5,29.83,East,90,1.3,2.2,70,0.00,,,0.00,WUHU216HW,2013-04-08 00:34:00,
2013-04-07 19:39:00,47.7,38.4,29.83,ESE,113,1.1,2.2,70,0.00,,,0.00,WUHU216HW,2013-04-08 00:39:00,
2013-04-07 19:44:00,47.5,38.3,29.83,ESE,113,0.2,2.0,70,0.00,,,0.00,WUHU216HW,2013-04-08 00:44:00,
2013-04-07 19:49:00,47.2,38.6,29.83,ENE,68,0.7,1.3,72,0.00,,,0.00,WUHU216HW,2013-04-08 00:49:00,
2013-04-07 19:54:00,47.0,38.4,29.84,East,90,1.1,2.5,72,0.00,,,0.00,WUHU216HW,2013-04-08 00:54:00,
2013-04-07 19:59:00,46.8,39.0,29.84,ENE,68,0.4,2.5,74,0.00,,,0.00,WUHU216HW,2013-04-08 00:59:00,
2013-04-07 20:04:00,46.6,38.8,29.84,East,90,0.4,1.6,74,0.00,,,0.00,WUHU216HW,2013-04-08 01:04:00,
2013-04-07 20:09:00,46.4,38.6,29.84,ENE,68,1.1,1.3,74,0.00,,,0.00,WUHU216HW,2013-04-08 01:09:00,
2013-04-07 20:14:00,46.6,39.2,29.83,ENE,68,1.1,2.2,75,0.00,,,0.00,WUHU216HW,2013-04-08 01:14:00,
2013-04-07 20:19:00,46.6,39.2,29.83,East,90,0.4,2.2,75,0.00,,,0.00,WUHU216HW,2013-04-08 01:19:00,
2013-04-07 20:24:00,46.4,39.0,29.83,ESE,113,0.4,2.5,75,0.00,,,0.00,WUHU216HW,2013-04-08 01:24:00,
2013-04-07 20:29:00,46.4,39.0,29.83,East,90,1.1,2.5,75,0.00,,,0.00,WUHU216HW,2013-04-08 01:29:00,
2013-04-07 20:34:00,46.4,39.7,29.82,East,90,1.6,2.5,77,0.00,,,0.00,WUHU216HW,2013-04-08 01:34:00,
2013-04-07 20:39:00,46.3,39.5,29.82,East,90,2.5,3.1,77,0.00,,,0.00,WUHU216HW,2013-04-08 01:39:00,
2013-04-07 20:44:00,46.3,39.5,29.82,East,90,1.8,3.1,77,0.00,,,0.00,WUHU216HW,2013-04-08 01:44:00,
2013-04-07 20:49:00,46.1,39.3,29.82,ENE,68,3.4,3.4,77,0.01,,,0.01,WUHU216HW,2013-04-08 01:49:00,
2013-04-07 20:54:00,45.9,39.8,29.82,East,90,2.2,3.4,79,0.01,,,0.01,WUHU216HW,2013-04-08 01:54:00,
2013-04-07 20:59:00,45.9,39.8,29.81,East,90,2.5,3.6,79,0.01,,,0.01,WUHU216HW,2013-04-08 01:59:00,
2013-04-07 21:05:00,45.7,39.6,29.82,SE,135,0.7,3.6,79,0.01,,,0.01,WUHU216HW,2013-04-08 02:05:00,
2013-04-07 21:10:00,45.5,39.8,29.82,ESE,113,1.8,3.1,80,0.01,,,0.01,WUHU216HW,2013-04-08 02:10:00,
2013-04-07 21:15:00,45.4,39.6,29.82,ESE,113,1.1,3.1,80,0.01,,,0.01,WUHU216HW,2013-04-08 02:15:00,
2013-04-07 21:20:00,45.2,39.7,29.82,NE,45,2.7,3.6,81,0.01,,,0.01,WUHU216HW,2013-04-08 02:20:00,
2013-04-07 21:25:00,45.2,39.7,29.82,ESE,113,2.5,3.6,81,0.01,,,0.01,WUHU216HW,2013-04-08 02:25:00,
2013-04-07 21:30:00,45.0,39.9,29.82,East,90,2.7,4.0,82,0.02,,,0.02,WUHU216HW,2013-04-08 02:30:00,
2013-04-07 21:35:00,44.8,40.0,29.82,East,90,3.4,4.0,83,0.02,,,0.02,WUHU216HW,2013-04-08 02:35:00,
2013-04-07 21:40:00,44.6,39.8,29.82,ESE,113,2.2,4.0,83,0.02,,,0.02,WUHU216HW,2013-04-08 02:40:00,
2013-04-07 21:45:00,44.5,39.6,29.82,ESE,113,0.4,4.0,83,0.02,,,0.02,WUHU216HW,2013-04-08 02:45:00,
2013-04-07 21:50:00,44.3,38.8,29.83,ESE,113,0.0,2.5,81,0.01,,,0.02,WUHU216HW,2013-04-08 02:50:00,
2013-04-07 21:56:00,44.1,39.2,29.83,SE,135,1.1,1.3,83,0.01,,,0.02,WUHU216HW,2013-04-08 02:56:00,
2013-04-07 22:00:00,43.9,39.4,29.83,SE,135,1.8,2.5,84,0.02,,,0.03,WUHU216HW,2013-04-08 03:00:00,
2013-04-07 22:06:00,43.9,39.1,29.82,ESE,113,1.8,2.5,83,0.02,,,0.03,WUHU216HW,2013-04-08 03:06:00,
2013-04-07 22:11:00,43.9,39.7,29.82,East,90,0.7,3.4,85,0.02,,,0.03,WUHU216HW,2013-04-08 03:11:00,
2013-04-07 22:16:00,43.7,40.2,29.82,ESE,113,1.8,4.0,87,0.02,,,0.03,WUHU216HW,2013-04-08 03:16:00,
2013-04-07 22:21:00,43.7,40.2,29.82,East,90,3.4,4.0,87,0.03,,,0.04,WUHU216HW,2013-04-08 03:21:00,
2013-04-07 22:26:00,43.6,39.6,29.81,ESE,113,1.1,3.4,86,0.02,,,0.04,WUHU216HW,2013-04-08 03:26:00,
2013-04-07 22:31:00,43.6,39.3,29.81,ESE,113,1.1,2.9,85,0.02,,,0.04,WUHU216HW,2013-04-08 03:31:00,
2013-04-07 22:36:00,43.6,40.0,29.81,SE,135,2.2,2.5,87,0.02,,,0.04,WUHU216HW,2013-04-08 03:36:00,
2013-04-07 22:42:00,43.4,40.1,29.80,ENE,68,2.2,3.8,88,0.03,,,0.05,WUHU216HW,2013-04-08 03:42:00,
2013-04-07 22:47:00,43.4,40.1,29.79,East,90,2.2,3.8,88,0.04,,,0.06,WUHU216HW,2013-04-08 03:47:00,
2013-04-07 22:52:00,43.2,39.9,29.79,ESE,113,1.3,3.1,88,0.04,,,0.06,WUHU216HW,2013-04-08 03:52:00,
2013-04-07 22:57:00,43.2,39.9,29.79,ENE,68,1.1,4.9,88,0.03,,,0.06,WUHU216HW,2013-04-08 03:57:00,
2013-04-07 23:00:00,43.2,39.2,29.79,East,90,1.8,4.9,86,0.03,,,0.06,WUHU216HW,2013-04-08 04:00:00,
2013-04-07 23:05:00,43.0,39.4,29.78,ENE,68,1.8,2.9,87,0.03,,,0.06,WUHU216HW,2013-04-08 04:05:00,
2013-04-07 23:10:00,43.0,39.4,29.79,ENE,68,3.1,4.0,87,0.03,,,0.06,WUHU216HW,2013-04-08 04:10:00,
2013-04-07 23:15:00,43.0,39.4,29.78,ENE,68,1.1,4.0,87,0.03,,,0.06,WUHU216HW,2013-04-08 04:15:00,
2013-04-07 23:20:00,43.0,39.4,29.78,ENE,68,1.6,3.6,87,0.02,,,0.06,WUHU216HW,2013-04-08 04:20:00,
2013-04-07 23:25:00,42.8,39.3,29.78,East,90,1.1,2.5,87,0.02,,,0.06,WUHU216HW,2013-04-08 04:25:00,
2013-04-07 23:30:00,42.8,39.5,29.78,ENE,68,2.5,2.5,88,0.02,,,0.06,WUHU216HW,2013-04-08 04:30:00,
2013-04-07 23:35:00,42.8,39.3,29.78,ESE,113,0.4,2.5,87,0.02,,,0.06,WUHU216HW,2013-04-08 04:35:00,
2013-04-07 23:40:00,42.8,39.3,29.77,ENE,68,0.9,2.5,87,0.01,,,0.07,WUHU216HW,2013-04-08 04:40:00,
2013-04-07 23:45:00,42.8,38.9,29.77,East,90,0.2,1.6,86,0.02,,,0.08,WUHU216HW,2013-04-08 04:45:00,
2013-04-07 23:50:00,42.8,38.9,29.77,East,90,0.0,1.3,86,0.03,,,0.09,WUHU216HW,2013-04-08 04:50:00,
2013-04-07 23:55:00,42.7,38.7,29.77,East,90,0.7,1.1,86,0.04,,,0.10,WUHU216HW,2013-04-08 04:55:00,